Weather observations for the past three days for
Easton / Newman Field
Imperial (Metric)
Date Time (edt) Wind (mph) Vis. (mi.) Weather Sky Cond. Temperature (ºF) Relative Humidity Wind Chill (°F) Heat Index (°F) Pressure Precipitation (in)
Air Dwpt 6 hour altimeter (in) sea level (mb) 1 hr 3 hr 6 hr
Max. Min.
22 19:45 SE 6 10.00 Partly Cloudy FEW011 SCT038 SCT055 75.2 71.6 89% 75 29.96 0.0
22 18:45 SE 7 10.00 Partly Cloudy FEW037 SCT049 75.2 71.6 89% 75 29.98 0.0
22 17:45 SE 7 10.00 A Few Clouds FEW070 77 71.6 83% 78 29.98 0.0
22 16:45 E 7 7.00 Light Rain SCT041 BKN055 75.2 71.6 89% 75 29.99 0.0
22 15:45 SE 7 10.00 Partly Cloudy SCT016 77 71.6 83% 78 30.01 0.0
22 14:45 S 5 7.00 Partly Cloudy SCT033 75.2 73.4 94% 74 30.03 0.0
22 13:45 S 5 3.00 Light Rain Fog/Mist BKN021 OVC041 78.8 75.2 89% 82 30.02 0.0
22 12:45 SE 7 7.00 Light Rain SCT016 BKN024 80.6 73.4 79% 85 30.03 0.0
22 11:45 SE 7 10.00 Partly Cloudy SCT016 82.4 75.2 79% 89 30.05 0.0
22 10:45 SE 6 10.00 Partly Cloudy SCT011 78.8 75.2 89% 82 30.05 0.0
22 09:45 S 7 10.00 Mostly Cloudy BKN011 78.8 75.2 89% 82 30.06 0.0
22 08:45 SE 6 10.00 Fair CLR 77 75.2 94% 78 30.07 0.0
22 07:45 SE 3 9.00 Mostly Cloudy BKN003 73.4 73.4 100% 30.06 0.0
22 06:45 Calm 8.00 Mostly Cloudy BKN003 73.4 73.4 100% 30.05 0.0
22 05:45 Calm 10.00 Fair CLR 71.6 71.6 100% 30.06 0.0
22 05:25 SE 3 10.00 Fair CLR 72.1 72.1 100% 30.05 0.0
22 05:05 SE 3 9.00 Fair CLR 72.1 72.1 100% 30.04 0.0
22 04:45 SE 5 10.00 Fair CLR 72.3 72.1 99% 30.04 0.0
22 04:25 SE 6 10.00 Fair CLR 72.7 72.3 99% 30.04 0.0
22 04:05 SE 5 10.00 Fair CLR 72.7 72.5 99% 30.04 0.0
22 03:45 SE 6 10.00 Fair CLR 72.9 72.7 99% 30.04 0.0
22 03:25 SE 5 10.00 Fair CLR 72.7 72.3 99% 30.05 0.0
22 03:05 SE 3 8.00 Fair CLR 73 72.5 98% 30.05 0.0
22 02:45 SE 7 9.00 Fair CLR 73.2 72.3 97% 30.06 0.0
22 02:25 SE 6 9.00 Fair CLR 73.2 72.3 97% 30.06 0.0
22 02:05 SE 7 9.00 Fair CLR 73.4 72.1 96% 30.07 0.0
22 01:25 S 9 9.00 Fair CLR 73.6 71.8 94% 30.07 0.0
22 00:45 SE 8 9.00 Fair CLR 74.3 72.1 93% 30.07 0.0
22 00:25 SE 6 9.00 Fair CLR 75 72.5 92% 74 30.07 0.0
22 00:05 SE 8 10.00 Fair CLR 75.4 72.5 91% 75 30.06 0.0
21 23:45 SE 7 10.00 A Few Clouds FEW110 75.7 73.2 92% 75 30.06 0.0
21 23:25 SE 6 10.00 Fair CLR 75.9 73.4 92% 76 30.06 0.0
21 23:05 SE 6 10.00 Fair CLR 76.3 73 90% 77 30.07 0.0
21 22:45 SE 5 10.00 Fair CLR 76.5 72.9 89% 77 30.07 0.0
21 22:25 SE 6 10.00 Fair CLR 77.2 73 87% 79 30.07 0.0
21 22:05 S 6 10.00 Fair CLR 77.9 73 85% 80 30.06 0.0
21 21:45 S 7 10.00 A Few Clouds FEW220 78.8 71.6 79% 82 30.05 0.0
21 20:45 S 9 10.00 Fair CLR 80.6 71.6 74% 85 30.03 0.0
21 19:45 SE 7 10.00 Fair CLR 82.4 69.8 66% 86 30.02 0.0
21 18:45 S 12 10.00 Fair CLR 84.2 71.6 66% 90 30.01 0.0
21 17:45 SW 8 10.00 A Few Clouds FEW045 86 71.6 62% 92 30 0.0
21 16:45 W 9 10.00 A Few Clouds FEW040 87.8 71.6 59% 94 30.01 0.0
21 15:45 SW 9 10.00 Partly Cloudy SCT040 87.8 73.4 62% 96 30.01 0.0
21 14:45 W 6 10.00 Partly Cloudy SCT033 86 71.6 62% 92 30.03 0.0
21 13:50 SW 5 10.00 Mostly Cloudy BKN031 84.2 77 79% 94 30.04 0.0
21 12:45 Calm 10.00 Mostly Cloudy BKN030 BKN037 BKN050 84.2 71.6 66% 90 30.05 0.0
21 11:45 Calm 10.00 Mostly Cloudy BKN025 82.4 71.6 70% 87 30.05 0.0
21 10:45 Calm 10.00 Mostly Cloudy BKN023 80.6 71.6 74% 85 30.05 0.0
21 09:45 NE 3 10.00 Mostly Cloudy BKN019 80.6 71.6 74% 85 30.04 0.0
21 08:45 Calm 10.00 Fair CLR 77 71.6 83% 78 30.06 0.0
21 07:45 Calm 10.00 Fair CLR 73.4 73.4 100% 30.04 0.0
21 06:50 Calm 10.00 Fair CLR 69.8 69.8 100% 30.03 0.0
21 05:55 Calm 10.00 Fair CLR 69.8 69.8 100% 30.03 0.0
21 05:45 Calm 4.00 Fog/Mist CLR 69.3 69.3 100% 30.03 0.0
21 05:25 NW 3 7.00 Fair CLR 69.4 69.4 100% 30.02 0.0
21 05:05 N 3 9.00 Fair CLR 70.5 70 98% 30.01 0.0
21 04:45 NE 3 9.00 Fair CLR 70.5 70.2 99% 30 0.0
21 04:25 E 5 9.00 Fair CLR 70.7 70 98% 29.99 0.0
21 04:05 NE 3 9.00 Fair CLR 70.7 70.5 99% 30 0.0
21 03:45 N 3 10.00 Fair CLR 70.7 70.2 98% 30 0.0
21 03:25 Calm 9.00 Fair CLR 71.6 71.1 98% 30 0.0
21 03:05 NE 5 9.00 Fair CLR 72.3 71.4 97% 30.01 0.0
21 02:45 N 5 10.00 A Few Clouds FEW014 72.3 71.4 97% 30.01 0.0
21 02:25 NE 5 10.00 Mostly Cloudy BKN014 73 72.1 97% 30.02 0.0
21 02:05 Calm 8.00 Light Rain OVC014 72.9 72.3 98% 30.03 0.0
21 01:45 NW 5 10.00 Overcast OVC013 72.7 71.8 97% 30.03 0.0
21 01:25 Calm 9.00 Overcast OVC012 72.5 72.1 99% 30.02 0.0
21 01:05 NW 3 10.00 Mostly Cloudy BKN012 72.9 72 97% 30.02 0.0
21 00:45 N 5 10.00 A Few Clouds FEW016 72.5 71.6 97% 30.01 0.0
21 00:25 E 3 9.00 Fair CLR 72.9 72 97% 30 0.0
21 00:05 NE 6 10.00 Fair CLR 73.2 72.3 97% 30 0.0
20 23:45 NE 5 10.00 Fair CLR 73.6 72.1 95% 30.02 0.0
20 23:25 N 3 10.00 A Few Clouds FEW180 73.6 72.3 96% 30.02 0.0
20 23:05 N 3 10.00 A Few Clouds FEW180 73.8 72.5 96% 30.03 0.0
20 22:45 N 3 10.00 Fair CLR 73.8 72.5 96% 30.04 0.0
20 22:25 E 3 10.00 Fair CLR 73.6 72.7 97% 30.04 0.0
20 22:05 Calm 10.00 Fair CLR 74.5 72.7 94% 30.04 0.0
20 21:50 Calm 10.00 Fair CLR 73.4 73.4 100% 30.04 0.0
20 19:50 Calm 10.00 Fair CLR 75.2 73.4 94% 74 30.04 0.0
20 18:50 SE 6 7.00 Mostly Cloudy BKN120 77 73.4 89% 78 30.03 0.0
20 17:50 SE 3 10.00 Fair CLR 77 71.6 83% 78 30.04 0.0
20 16:50 Calm 7.00 Light Rain OVC110 78.8 71.6 79% 82 30.07 0.0
20 15:45 SE 5 10.00 Light Rain CLR 80.6 69.8 70% 84 30.07 0.0
20 14:45 SE 8 10.00 Fair CLR 80.6 66.2 62% 83 30.08 0.0
20 13:50 SE 7 10.00 Fair CLR 82.4 64.4 55% 84 30.09 0.0
20 12:45 S 8 10.00 Fair CLR 82.4 66.2 58% 85 30.1 0.0
20 11:45 SE 10 10.00 Fair CLR 82.4 64.4 55% 84 30.11 0.0
20 10:50 S 8 10.00 Fair CLR 82.4 62.6 51% 83 30.11 0.0
20 09:45 SE 5 10.00 Fair CLR 78.8 71.6 79% 82 30.11 0.0
20 08:50 SE 5 10.00 Fair CLR 75.2 71.6 89% 75 30.12 0.0
20 07:45 Calm 10.00 Fair CLR 73.4 69.8 89% 30.12 0.0
20 06:50 Calm 10.00 Fair CLR 71.6 69.8 94% 30.11 0.0
20 05:55 Calm 10.00 Fair CLR 69.8 68 94% 30.11 0.0
20 05:45 Calm 10.00 Fair CLR 69.1 67.5 95% 30.11 0.0
20 05:25 Calm 10.00 Fair CLR 69.3 67.5 94% 30.11 0.0
20 05:05 Calm 10.00 Fair CLR 69.6 67.5 93% 30.11 0.0
20 04:45 Calm 10.00 Fair CLR 69.3 67.1 93% 30.11 0.0
20 04:25 Calm 10.00 Fair CLR 69.1 67.1 93% 30.11 0.0
20 04:05 Calm 10.00 Fair CLR 69.1 67.1 93% 30.11 0.0
20 03:45 Calm 10.00 Fair CLR 69.1 66.9 93% 30.11 0.0
20 03:25 Calm 10.00 Fair CLR 68.9 66.7 93% 30.11 0.0
20 03:05 S 3 10.00 Fair CLR 68.9 66.7 93% 30.11 0.0
20 02:45 Calm 10.00 Fair CLR 68.5 66.6 93% 30.11 0.0
20 02:25 E 3 10.00 Fair CLR 69.4 66.9 92% 30.11 0.0
20 02:05 E 3 10.00 Fair CLR 69.4 66.9 92% 30.12 0.0
20 01:45 Calm 10.00 Fair CLR 70.5 67.1 89% 30.12 0.0
20 01:25 Calm 10.00 Fair CLR 70.7 66.9 88% 30.13 0.0
20 01:05 SE 3 10.00 Fair CLR 71.1 66.6 86% 30.13 0.0
20 00:45 SE 5 10.00 Fair CLR 71.1 66.4 85% 30.13 0.0
20 00:25 SE 5 10.00 Fair CLR 71.8 66 82% 30.14 0.0
20 00:05 SE 5 10.00 Fair CLR 72.1 66 81% 30.14 0.0
19 23:45 SE 6 10.00 Fair CLR 72.3 65.7 80% 30.14 0.0
19 23:25 SE 5 10.00 Fair CLR 73 65.3 77% 30.14 0.0
19 23:05 S 7 10.00 Fair CLR 74.3 64.8 72% 30.14 0.0
19 22:45 S 7 10.00 Fair CLR 74.7 63.9 69% 30.14 0.0
19 22:25 S 7 10.00 Fair CLR 74.8 63.7 68% 30.14 0.0
19 22:05 SE 7 10.00 Fair CLR 75.7 63.9 67% 78 30.14 0.0
19 21:45 SE 7 10.00 Fair CLR 77 64.4 65% 79 30.13 0.0
19 20:45 SE 5 10.00 Fair CLR 78.8 66.2 65% 81 30.1 0.0
Date Time (edt) Wind (mph) Vis. (mi.) Weather Sky Cond. Air Dwpt Max. Min. Relative Humidity Wind Chill (°F) Heat Index (°F) altimeter (in) sea level (mb) 1 hr 3 hr 6 hr
6 hour
Temperature (ºF) Pressure Precipitation (in)